SCP
0 0 0 0 0 0 0 0 0 0 0 0 0 0 0 0 0 0 0 0 0 0 0 0 0 0 0 0 0 0 0 0 0 0 0 0 0 0 0 0 0 0 0 0 0 0 0 0 0
0 0 0 0 0 0 0 0 0 0 0 0 0 0 0 0 0 0 0 0 0 0 0 0 0 0 0 0 0 0 0 0 0 0 0 0 0 0 0 0 0 0 0 0 0 0 0 0 0
0 0 0 0 0 0 0 0 0 0 0 0 0 0 0 0 0 0 0 0 0 0 0 0 0 0 0 0 0 0 0 0 0 0 0 0 0 0 0 0 0 0 0 0 0 0 0 0 0
0 0 0 0 0 0 0 0 0 0 0 0 0 0 0 0 0 0 0 0 0 0 0 0 0 0 0 0 0 0 0 0 0 0 0 0 0 0 0 0 0 0 0 0 0 0 0 0 0
0 0 0 0 0 0 0 0 0 0 0 0 0 0 0 0 0 0 0 0 0 0 0 0 0 0 0 0 0 0 0 0 0 0 0 0 0 0 0 0 0 0 0 0 0 0 0 0 0
0 0 0 0 0 0 0 0 0 0 0 0 0 0 0 0 0 0 0 0 0 0 0 0 0 0 0 0 0 0 0 0 0 0 0 0 0 0 0 0 0 0 0 0 0 0 0 0 0
0 0 0 0 0 0 0 0 0 0 0 0 0 0 0 0 0 0 0 0 0 0 0 0 0 0 0 0 0 0 0 0 0 0 0 0 0 0 0 0 0 0 0 0 0 0 0 0 0
0 0 0 0 0 0 0 0 0 0 0 0 0 0 0 0 0 0 0 0 0 0 0 0 0 0 0 0 0 0 0 0 0 0 0 0 0 0 0 0 0 0 0 0 0 0 0 0 0
0 0 0 0 0 0 0 0 0 0 0 0 0 0 0 0 0 0 0 0 0 0 0 0 0 0 0 0 0 0 0 0 0 0 0 0 0 0 0 0 0 0 0 0 0 0 0 0 0
0 0 0 0 0 0 0 0 0 0 0 0 0 0 0 0 0 0 0 0 0 0 0 0 0 0 0 0 0 0 0 0 0 0 0 0 0 0 0 0 0 0 0 0 0 0 0 0 0
0 0 0 0 0 0 0 0 0 0 0 0 0 0 0 0 0 0 0 0 0 0 0 0 0 0 0 0 0 0 0 0 0 0 0 0 0 0 0 0 0 0 0 0 0 0 0 0 0
0 0 0 0 0 0 0 0 0 0 0 0 0 0 0 0 0 0 0 0 0 0 0 0 0 0 0 0 0 0 0 0 0 0 0 0 0 0 0 0 0 0 0 0 0 0 0 0 0
0 0 0 0 0 0 0 0 0 0 0 0 0 0 0 0 0 0 0 0 0 0 0 0 0 0 0 0 0 0 0 0 0 0 0 0 0 0 0 0 0 0 0 0 0 0 0 0 0
0 0 0 0 0 0 0 0 0 0 0 0 0 0 0 0 0 0 0 0 0 0 0 0 0 0 0 0 0 0 0 0 0 0 0 0 0 0 0 0 0 0 0 0 0 0 0 0 0
0 0 0 0 0 0 0 0 0 0 0 0 0 0 0 0 0 0 0 0 0 0 0 0 0 0 0 0 0 0 0 0 0 0 0 0 0 0 0 0 0 0 0 0 0 0 0 0 0
0 0 0 0 0 0 0 0 0 0 0 0 0 0 0 0 0 0 0 0 0 0 0 0 0 0 0 0 0 0 0 0 0 0 0 0 0 0 0 0 0 0 0 0 0 0 0 0 0
0 0 0 0 0 0 0 0 0 0 0 0 0 0 0 0 0 0 0 0 0 0 0 0 0 0 0 0 0 0 0 0 0 0 0 0 0 0 0 0 0 0 0 0 0 0 0 0 0
0 0 0 0 0 0 0 0 0 0 0 0 0 0 0 0 0 0 0 0 0 0 0 0 0 0 0 0 0 0 0 0 0 0 0 0 0 0 0 0 0 0 0 0 0 0 0 0 0
0 0 0 0 0 0 0 0 0 0 0 0 0 0 0 0 0 0 0 0 0 0 0 0 0 0 0 0 0 0 0 0 0 0 0 0 0 0 0 0 0 0 0 0 0 0 0 0 0
0 0 0 0 0 0 0 0 0 0 0 0 0 0 0 0 0 0 0 0 0 0 0 0 0 0 0 0 0 0 0 0 0 0 0 0 0 0 0 0 0 0 0 0 0 0 0 0 0
0 0 0 0 0 0 0 0 0 0 0 0 0 0 0 0 0 0 0 0 0 0 0 0 0 0 0 0 0 0 0 0 0 0 0 0 0 0 0 0 0 0 0 0 0 0 0 0 0
0 0 0 0 0 0 0 0 0 0 0 0 0 0 0 0 0 0 0 0 0 0 0 0 0 0 0 0 0 0 0 0 0 0 0 0 0 0 0 0 0 0 0 0 0 0 0 0 0
0 0 0 0 0 0 0 0 0 0 0 0 0 0 0 0 0 0 0 0 0 0 0 0 0 0 0 0 0 0 0 0 0 0 0 0 0 0 0 0 0 0 0 0 0 0 0 0 0
0 0 0 0 0 0 0 0 0 0 0 0 0 0 0 0 0 0 0 0 0 0 0 0 0 0 0 0 0 0 0 0 0 0 0 0 0 0 0 0 0 0 0 0 0 0 0 0 0
0 0 0 0 0 0 0 0 0 0 0 0 0 0 0 0 0 0 0 0 0 0 0 0 0 0 0 0 0 0 0 0 0 0 0 0 0 0 0 0 0 0 0 0 0 0 0 0 0
0 0 0 0 0 0 0 0 0 0 0 0 0 0 0 0 0 0 0 0 0 0 0 0 0 0 0 0 0 0 0 0 0 0 0 0 0 0 0 0 0 0 0 0 0 0 0 0 0
0 0 0 0 0 0 0 0 0 0 0 0 0 0 0 0 0 0 0 0 0 0 0 0 0 0 0 0 0 0 0 0 0 0 0 0 0 0 0 0 0 0 0 0 0 0 0 0 0
0 0 0 0 0 0 0 0 0 0 0 0 0 0 0 0 0 0 0 0 0 0 0 0 0 0 0 0 0 0 0 0 0 0 0 0 0 0 0 0 0 0 0 0 0 0 0 0 0
0 0 0 0 0 0 0 0 0 0 0 0 0 0 0 0 0 0 0 0 0 0 0 0 0 0 0 0 0 0 0 0 0 0 0 0 0 0 0 0 0 0 0 0 0 0 0 0 0
0 0 0 0 0 0 0 0 0 0 0 0 0 0 0 0 0 0 0 0 0 0 0 0 0 0 0 0 0 0 0 0 0 0 0 0 0 0 0 0 0 0 0 0 0 0 0 0 0
Wind_Speed
8 9 6 2 2 1 6 7 8 7 8 9 9 10 12 12 8 6 2 3 5 7 8 8 9 9 9 9 9 9 9 9 8 8 8 8 8 8 8 8 8 8 7 7 6 6 6 6 6
8 5 4 2 1 3 6 7 9 8 7 6 9 11 12 11 10 7 3 3 6 8 8 9 9 9 9 9 9 9 9 9 8 9 8 8 8 9 9 8 8 8 7 6 5 5 5 6 6
11 7 3 1 3 6 6 7 7 7 5 7 8 10 9 7 8 5 3 4 7 9 9 9 9 9 9 9 9 9 9 9 9 9 9 9 8 9 9 9 9 9 8 6 5 6 6 7 7
5 3 1 2 9 9 7 6 5 7 7 8 9 9 10 9 6 6 5 6 9 9 10 8 9 9 9 9 9 9 9 9 9 9 9 9 9 9 9 9 9 9 8 8 8 8 8 7 7
3 1 2 5 9 8 7 7 7 8 9 11 11 11 10 8 8 7 5 7 8 8 9 9 9 9 8 8 8 8 8 8 9 9 10 10 10 10 10 9 9 9 9 10 10 9 9 8 7
2 1 3 6 9 8 7 7 7 8 8 9 10 11 8 7 6 6 6 6 6 7 8 8 9 9 9 8 8 8 8 8 9 9 9 9 10 10 10 10 10 9 9 9 9 9 9 8 7
1 2 5 7 7 7 7 7 7 7 8 8 8 9 7 7 5 6 6 5 5 5 6 7 7 8 9 9 8 8 8 8 8 8 7 8 9 10 10 10 9 9 9 9 8 8 8 8 7
1 2 5 6 6 7 7 7 7 8 7 7 6 7 7 6 6 5 5 5 4 4 5 6 6 7 7 7 7 8 7 6 6 6 6 6 7 8 9 9 9 8 8 8 8 8 8 7 7
1 3 5 6 5 5 6 7 7 8 8 10 11 11 9 9 7 6 5 5 4 4 4 5 6 6 5 6 7 6 6 4 4 4 4 4 3 4 5 8 8 8 7 7 6 6 6 6 5
3 4 5 5 5 5 7 6 5 6 8 9 10 10 9 8 7 6 5 5 5 4 4 4 5 6 5 4 4 2 3 3 2 2 3 2 3 3 6 7 7 6 5 4 4 3 3 2 2
6 5 5 6 6 6 6 6 5 6 6 6 8 9 8 6 6 6 6 5 5 5 4 4 5 5 5 3 3 2 2 1 2 3 4 3 3 3 3 2 3 3 3 2 2 2 1 2 3
6 6 6 6 5 4 5 5 6 7 6 7 8 8 7 5 6 6 5 6 5 5 5 4 4 5 5 4 3 2 2 1 2 1 3 3 2 2 2 2 2 2 2 2 2 2 4 4 5
6 5 6 5 4 4 4 5 6 6 6 7 8 8 6 5 5 5 6 6 5 5 5 4 4 5 5 4 2 3 2 2 2 2 2 3 2 2 2 2 2 2 2 2 2 3 5 5 6
4 4 4 4 4 4 3 4 5 5 5 6 6 6 6 4 5 5 6 6 6 5 5 4 3 4 5 3 2 3 2 2 2 2 2 3 2 2 3 3 3 3 3 2 3 4 4 4 5
3 3 4 3 4 3 2 2 4 6 5 5 6 6 5 4 4 5 5 5 5 6 6 5 3 4 4 4 4 3 2 3 3 2 2 4 3 3 4 3 3 2 2 3 3 4 4 4 4
5 3 3 4 4 5 3 2 4 5 6 5 5 5 5 4 5 5 5 5 5 6 7 5 4 4 4 4 3 2 3 3 3 2 3 4 4 5 4 2 2 3 3 3 3 3 3 3 4
5 3 3 4 4 4 4 3 6 5 5 5 5 5 6 5 5 5 5 5 5 5 6 6 5 4 5 4 3 3 4 3 2 3 3 3 4 4 3 2 2 3 3 3 3 3 3 3 3
2 2 2 2 3 3 3 3 6 6 5 5 4 5 6 6 5 6 5 4 5 4 5 6 5 4 4 3 3 3 3 2 2 3 3 3 3 4 3 2 3 3 3 3 3 3 3 2 2
3 3 3 1 1 2 2 3 4 6 6 5 5 5 5 6 5 6 6 5 5 4 4 6 5 5 4 2 2 2 2 1 2 2 2 3 2 3 3 3 3 3 2 2 3 3 2 2 2
4 4 3 1 1 2 3 3 4 6 6 5 5 5 5 5 6 6 5 6 5 5 4 6 5 5 4 2 2 2 2 1 2 1 2 2 2 2 2 3 2 3 3 3 2 2 1 0 1
5 4 3 3 2 5 5 5 5 7 6 5 5 4 5 6 6 6 5 4 5 4 4 5 6 5 5 3 2 2 2 2 1 1 1 1 2 2 3 3 2 2 2 2 2 2 2 0 1
5 2 3 5 5 5 5 3 4 7 7 7 5 5 5 5 6 6 6 5 5 4 3 4 6 5 5 4 2 2 2 1 1 1 1 1 2 2 2 2 2 2 2 2 1 2 1 1 0
3 3 5 7 7 8 8 6 4 7 7 7 7 6 6 6 6 5 5 5 5 5 4 3 5 5 4 3 3 2 2 1 1 1 2 2 1 1 1 2 2 1 2 2 2 2 1 0 0
3 6 8 8 6 8 8 6 3 4 6 6 7 7 7 7 6 6 6 6 5 5 4 4 4 5 4 3 3 3 2 2 2 2 1 1 1 1 1 1 2 1 1 2 2 1 1 0 1
6 5 4 4 5 5 4 3 3 6 5 5 5 6 7 6 6 7 7 6 5 6 5 5 5 4 3 2 2 3 2 2 2 2 2 1 1 1 1 1 1 1 1 1 1 1 1 1 1
6 7 5 4 4 3 2 2 5 7 6 5 4 5 7 6 6 6 7 6 5 6 5 5 5 4 3 2 2 2 2 2 1 1 1 1 1 1 1 2 2 1 1 1 1 0 0 0 0
7 6 7 7 10 8 3 2 4 5 6 5 5 5 5 5 6 6 6 7 6 6 5 5 5 4 3 2 2 2 2 2 2 1 1 1 1 1 1 2 2 2 1 1 1 1 0 0 0
7 8 5 4 5 6 4 4 4 6 5 4 5 5 5 5 5 6 5 5 6 6 5 5 5 5 4 3 2 2 2 2 1 1 1 1 1 1 1 2 1 2 2 2 1 1 0 0 0
7 7 6 5 6 5 4 1 3 5 5 4 4 5 4 4 4 5 5 5 6 7 6 5 5 4 4 3 2 2 2 2 2 1 1 1 2 2 2 1 1 1 2 2 2 2 1 1 1
6 7 7 5 6 6 5 1 3 3 3 3 3 4 4 3 4 4 4 5 5 6 6 5 5 4 3 3 2 3 2 2 1 2 2 1 1 1 1 1 1 1 1 1 2 2 2 1 1
Wind_Direction
257 242 240 242 250 94 63 65 61 53 58 53 50 60 63 52 48 75 101 58 78 86 90 79 68 70 68 63 63 64 64 63 63 64 66 67 67 65 68 66 62 59 56 55 58 65 72 86 95
272 264 250 232 250 84 70 71 69 61 71 75 63 62 66 61 68 90 99 72 83 82 81 77 74 71 69 67 67 66 66 65 66 69 70 69 68 67 66 66 62 59 55 54 64 77 80 88 96
262 262 264 298 49 68 76 73 83 82 73 75 72 59 52 56 64 82 101 100 89 87 86 86 80 76 72 69 68 68 69 68 69 71 72 71 71 72 69 65 64 60 54 50 71 87 87 91 96
265 263 271 65 71 71 86 91 87 86 74 71 78 72 66 54 69 91 102 99 94 95 95 95 89 85 78 74 71 71 70 71 70 71 72 74 73 73 73 70 67 63 57 60 77 86 86 90 99
246 248 92 91 84 81 77 74 74 71 69 72 81 88 86 79 87 93 89 86 93 98 104 106 100 94 88 82 80 75 72 72 73 75 78 77 73 73 74 70 68 65 62 64 73 80 83 83 86
272 187 102 93 87 82 78 76 73 75 77 82 90 94 90 94 90 90 86 84 94 103 107 116 115 107 100 92 88 83 82 79 78 81 83 83 82 80 79 75 71 66 64 67 69 74 79 79 76
263 92 98 97 91 86 80 73 74 77 69 64 83 93 103 106 104 107 105 95 91 100 115 126 130 122 111 103 100 96 93 89 87 89 89 93 94 89 85 80 75 70 69 74 77 79 80 80 75
294 85 101 93 91 85 81 76 75 73 71 67 70 89 109 123 126 118 120 115 107 106 113 126 132 133 131 124 118 114 110 105 104 106 104 103 107 102 96 87 79 74 72 73 77 79 80 84 81
122 97 93 88 88 94 94 87 84 87 84 75 73 84 111 128 134 131 123 116 103 99 108 114 117 117 123 128 127 138 138 129 124 133 134 125 116 111 102 92 89 81 78 79 83 85 88 88 83
92 85 94 97 105 106 94 90 97 102 92 90 91 97 114 127 136 136 125 111 106 98 98 109 111 113 108 102 119 137 129 134 145 125 127 123 104 97 98 103 103 97 89 80 80 81 93 82 69
90 98 93 87 88 94 96 90 82 87 86 97 110 117 123 133 130 121 114 106 106 104 91 95 105 108 107 99 99 91 97 102 91 94 101 96 98 110 108 123 119 113 96 65 59 54 52 69 66
95 89 87 89 86 86 88 86 78 77 84 97 102 113 123 125 119 115 114 113 106 103 98 83 92 99 101 99 92 94 93 96 83 69 94 93 89 91 106 111 110 100 79 52 40 48 52 56 60
99 104 103 103 110 100 95 92 88 86 93 104 111 114 115 116 114 116 114 113 114 106 99 88 81 96 91 84 98 93 79 74 85 53 84 96 89 90 91 97 91 85 83 68 44 53 53 50 52
103 111 120 125 131 133 125 126 119 120 126 125 123 123 119 124 128 125 121 121 120 112 106 97 89 87 96 96 87 80 85 83 79 66 76 93 88 88 85 84 81 78 76 65 53 59 60 59 60
153 160 149 159 171 150 131 121 129 141 147 141 138 132 130 142 135 126 122 117 116 115 106 96 91 81 88 80 67 81 71 66 66 59 56 77 76 78 84 72 82 87 85 77 66 62 59 64 66
204 196 181 175 185 165 187 160 140 154 164 154 155 145 144 143 132 124 112 106 109 109 107 109 94 84 80 79 70 71 76 66 60 59 44 60 67 71 77 80 82 90 83 83 82 75 67 64 65
218 208 193 173 190 184 202 169 162 179 177 175 172 153 147 147 135 122 117 121 117 116 122 120 104 96 84 80 78 59 66 61 54 60 50 47 52 65 73 72 80 81 77 72 84 82 82 79 75
242 241 231 178 169 202 205 200 173 182 196 189 171 161 157 150 144 133 129 120 114 120 124 117 110 102 93 77 75 64 60 54 54 57 56 50 54 71 73 71 70 74 76 71 82 85 80 89 94
279 286 285 265 160 235 236 228 184 182 194 189 180 173 163 151 147 132 138 137 135 136 129 121 120 114 107 89 86 84 74 67 70 69 64 54 53 85 92 82 74 75 79 84 92 94 88 97 111
263 269 274 243 213 253 252 245 208 178 188 188 186 177 164 153 146 138 148 154 153 146 146 135 126 116 110 98 93 108 97 74 78 70 74 73 55 60 91 94 96 95 93 82 86 105 91 97 93
254 266 288 299 278 253 251 252 205 167 181 178 185 171 160 155 147 147 151 148 139 140 150 134 127 120 118 109 79 73 76 66 68 75 59 69 80 62 66 84 89 98 106 116 115 106 96 59 350
271 294 299 284 272 261 235 260 205 174 172 175 179 170 162 152 150 152 151 146 145 147 146 129 127 128 123 122 105 112 119 119 132 130 131 102 103 101 100 113 107 114 110 112 113 102 96 101 351
304 316 279 269 270 275 250 244 210 164 169 174 177 169 161 150 148 147 141 141 142 137 132 127 118 119 118 124 127 125 108 125 113 103 106 98 84 86 95 106 116 130 125 132 119 105 102 119 111
279 268 257 245 253 260 250 239 187 166 164 165 162 161 156 152 148 144 135 134 135 131 130 125 119 119 125 143 154 151 142 142 124 120 118 125 128 104 106 113 119 130 125 132 135 142 161 149 111
240 258 266 230 215 239 221 225 142 123 128 135 145 152 147 146 146 144 140 143 144 143 144 141 130 125 133 164 169 149 148 152 149 146 157 155 126 126 171 132 126 117 129 136 125 139 155 167 164
247 251 265 291 286 292 246 210 117 119 122 127 135 134 138 143 145 145 146 149 149 147 147 148 140 140 155 175 162 152 144 131 125 146 145 144 152 175 178 139 134 134 139 138 126 113 167 114 135
268 255 270 287 292 287 248 129 115 126 126 130 129 123 131 137 142 143 148 155 155 152 154 153 150 154 163 167 171 167 140 132 148 153 119 121 151 173 153 142 153 157 160 164 140 157 208 150 86
264 291 293 272 286 280 251 212 168 154 143 151 138 134 132 135 139 142 148 158 156 153 156 158 158 162 164 177 190 168 155 144 136 133 124 154 189 187 156 150 171 168 172 171 152 145 285 85 92
228 247 260 268 265 281 295 28 90 147 149 152 147 137 130 131 136 138 143 155 154 149 156 159 161 161 165 177 178 171 166 161 160 159 182 215 201 187 175 173 178 160 160 164 157 169 180 203 222
253 254 260 264 273 281 287 275 88 113 122 127 131 125 121 127 130 135 140 150 153 151 160 166 170 165 161 175 180 182 168 167 176 167 198 222 224 182 156 149 143 136 140 163 168 175 183 196 214